Weather in Kokshaysk

Russia / Mari El Republic     56°08′12″N   47°49′06″E
temp.,
°C
wind,
m/s
gust,
m/s
humid.,
%
clouds,
%
prec.,
mm/h
press.,
hPa
HPBL,
m
4 december, sat
sat400:00+1sse41295100 0.1 1007516
03:00+3s71696100 0.1 1004876
06:00+4s71790100 0.1 10001008
09:00+3ssw81797100 1.4 10001203
12:00+1wsw51185100 0.8 1003888
15:000wsw5118222 0.8 1005703
18:00−2wsw5118384 0.0 1007820
21:00−2wsw5108092 0.1 1008961
5 december, sun
sun500:00−3wsw5108396 0.0 1009785
03:00−3w498281 0.1 1011735
06:00−3w4776100 0.1 1012999
09:00−4w477953 0.1 1014796
12:00−4nw4678100 0.1 1016836
15:00−5wnw3679100 0.2 1018755
18:00−6nnw2375100 0.0 1019525
21:00−7n227596 0.0 1021483
6 december, mon
mon600:00−8n22765 0.0 1022293
03:00−9nne23775 0.0 1023254
06:00−10nne23775 0.0 1024243
09:00−10ne127685 0.0 1026217
12:00−8ne117470 0.0 1027341
15:00−8ne227770 0.0 1028282
18:00−9ene248061 0.0 1029238
21:00−9e248241 0.0 1030229
7 december, tue
tue700:00−9e258387 0.0 1031216
03:00−9e3782100 0.0 1031248
06:00−9e388291 0.0 1031278
09:00−9ese41080100 0.0 1031322
12:00−7ese4127594 0.0 1030414
15:00−6ese61476100 0.0 1028543
18:00−5ese61677100 0.0 1026678
21:00−5se81892100 1.0 1023673
8 december, wed
wed800:00−4se71694100 5.9 1021634
03:00−1sse51595100 7.8 1019547
06:00+2s51595100 1.5 1018616
09:00+3s51597100 1.5 1019583
12:00+3s51599100 0.0 1019608
15:00+3s41296100 0.0 1019438
18:00+1sse41191100 0.0 1020348
21:000sse41188100 0.0 1020327